SL-8 DEB

基本信息
目录编号:
45514
目录名称:
SL-8 DEB
国际标识:
1980-022D
轨道中心:
EARTH
物体状态:
在轨
发射日期:
1980-03-17 UTC
轨道信息
数据来源: 国际轨道数据
星历时间: 2026-09-09T19:47:24+0800
半长轴: 7338.681km
偏心率: 0.0032485
轨道倾角: 82.945°
近地点辐角: 349.860°
升交点赤经: 164.362°
平近点角: 10.190°
近地点: 936.704km
远地点: 984.384km
周期: 104.277分钟
每日圈数: 13.80943
详细信息
发射场:
PKMTR
轨道高度:
LEO
数据来源:
AOE Integration Group
参考系:
TEME
时间系统:
UTC
历元类型:
SGP4
2D轨道图
3D轨道图
轨道高度分析图
轨道倾角分析图
轨道综合分析图
查看轨道综合分析图